Regional Weather Roundup
Issued by NWS

Home | Current Version | Previous Version | Graphics & Text | Print | Product List | Glossary On
Versions: 1 2 3 4 5 6 7 8 9 10 11 12 13 14 15 16 17 18 19 20 21 22 23 24 25 26 27 28 29 30 31 32 33 34 35 36 37 38 39 40 41 42 43 44 45 46 47 48 49 50
000
ASUS43 KMKX 230359
RWRWI

WISCONSIN REGIONAL WEATHER ROUNDUP
NATIONAL WEATHER SERVICE MILWAUKEE/SULLIVAN WI
1000 PM CST MON JAN 22 2018

NOTE: "FAIR" INDICATES FEW OR NO CLOUDS BELOW 12,000 FEET WITH NO
SIGNIFICANT WEATHER AND/OR OBSTRUCTIONS TO VISIBILITY.

WIZ001-002-006>008-014>016-023>028-230500-
NORTHWEST WISCONSIN

CITY           SKY/WX    TMP DP  RH WIND       PRES   REMARKS
SUPERIOR ARPT  CLOUDY    24  15  70 N10G18    29.89R WCI  13
ASHLAND        CLOUDY    21  19  92 N21G28    29.84S WCI   5
HAYWARD        MIX PCPN  23  19  85 N18G30    29.77R WCI   9
SIREN          CLOUDY    26  21  81 N14G23    29.80R WCI  14
CUMBERLAND     CLOUDY    25  21  86 N16G25    29.72R WCI  12
RICE LAKE        N/A     25  22  88 N15G24    29.74R WCI  13
CHETEK         LGT SNOW  26  23  89 N8G16     29.72R WCI  17
LADYSMITH      CLOUDY    27  23  86 N14       29.71R WCI  15
EAU CLAIRE     LGT SNOW  27  24  89 N9        29.69R FOG     WCI  18
MENOMONIE      LGT SNOW  28  26  93 NW12      29.71R WCI  17
NEW RICHMOND   CLOUDY    26  23  89 N16G25    29.75R WCI  13
OSCEOLA        CLOUDY    28  23  83 N16G22    29.80R WCI  16
$$

WIZ003>005-009-010-017-018-230500-
NORTH CENTRAL WISCONSIN

CITY           SKY/WX    TMP DP  RH WIND       PRES   REMARKS
MANITOWISH WTR CLOUDY    22  21  96 N12G23    29.65R WCI  10
ARBOR VITAE    LGT SNOW  24  22  91 N9G16     29.63R WCI  14
WOODRUFF       LGT SNOW  24  22  91 N9G16     29.63R WCI  14
RHINELANDER    LGT SNOW  24  21  88 N10       29.63S FOG     WCI  14
EAGLE RIVER    CLOUDY    22  21  94 NE13G18   29.63R WCI  10
LAND O LAKES   CLOUDY    22  20  91 N12G21    29.64S WCI  11
PHILLIPS       CLOUDY    23  21  92 N13G18    29.67R WCI  11
TOMAHAWK       CLOUDY    24  21  88 N5        29.65S FOG     WCI  18
MEDFORD        CLOUDY    25  22  87 N13       29.61R WCI  14
MERRILL        MIX PCPN  27  23  85 N14G20    29.62R WCI  16
$$

WIZ029-030-035-036-043>047-230500-
CENTRAL WISCONSIN

CITY           SKY/WX    TMP DP  RH WIND       PRES   REMARKS
WAUSAU         CLOUDY    28  24  85 N8        29.57S WCI  20
MOSINEE        CLOUDY    28  27  93 N10       29.59R WCI  19
MARSHFIELD     CLOUDY    28  25  88 NE14      29.57S WCI  17
STEVENS POINT  CLOUDY    28  27  94 N12       29.57S WCI  18
WAUPACA        CLOUDY    32  28  84 N10G17    29.56S WCI  24
WAUTOMA        CLOUDY    30  28  92 N12       29.53S WCI  20
WISC RAPIDS    NOT AVBL
CAMP DOUGLAS   NOT AVBL
$$

WIZ011>013-019>022-031-037>040-048>050-230500-
NORTHEAST WISCONSIN

CITY           SKY/WX    TMP DP  RH WIND       PRES   REMARKS
ANTIGO         CLOUDY    26  23  87 NE18G25   29.58R WCI  13
SHAWANO        CLOUDY    32  28  86 NE17      29.56F WCI  20
OCONTO         CLOUDY    29  27  93 N9        29.56F WCI  21
STURGEON BAY   LGT SNOW  29  28  96 N20       29.54R FOG     WCI  16
GREEN BAY      CLOUDY    30  28  92 N21G28    29.53F WCI  17
MANITOWOC      MIX PCPN  32  31  96 N14G22    29.49F FOG     WCI  22
APPLETON       CLOUDY    28  28 100 N21       29.50F WCI  15
CLINTONVILLE   CLOUDY    30  27  86 NE15      29.56F WCI  19
OSHKOSH        CLOUDY    31  29  92 N18G26    29.51R WCI  19
$$

WIZ032>034-041-042-053>061-230500-
SOUTHWEST WISCONSIN

CITY           SKY/WX    TMP DP  RH WIND       PRES   REMARKS
LA CROSSE      CLOUDY    34  31  88 N12G22    29.60R WCI  25
SPARTA         MIX PCPN  32  30  94 N6        29.60R WCI  26
VIROQUA        CLOUDY    32  32 100 NE13      29.55R WCI  22
BOSCOBEL       CLOUDY    35  32  88 N10       29.54F WCI  27
PRAIRIE DU CHI CLOUDY    34  32  92 NW7       29.54S FOG     WCI  28
PLATTEVILLE    CLOUDY    34  34 100 NE8       29.51R WCI  27
$$

WIZ056-057-062-063-064-067-068-230500-
SOUTH CENTRAL WISCONSIN

CITY           SKY/WX    TMP DP  RH WIND       PRES   REMARKS
REEDSBURG      CLOUDY    31  31 100 NE8       29.54R WCI  24
BARABOO/DELLS  CLOUDY    31  30  96 NE5       29.54R WCI  26
LONE ROCK      CLOUDY    33  32  96 N8        29.55S WCI  26
MINERAL POINT  CLOUDY    34  34 100 NE7       29.50S FOG     WCI  28
MADISON        LGT SNOW  32  31  96 N8        29.53R FOG     WCI  25
MIDDLETON      CLOUDY    34  34 100 N7        29.53S WCI  27
WATERTOWN      MIX PCPN  32  32 100 NW6       29.48S WCI  27
MONROE         FOG       32  32 100 N8        29.48F VSB 1   WCI  25
JANESVILLE     RAIN      34  34 100 CALM      29.50S
$$

WIZ051-052-058>065-066-070>072-230500-
SOUTHEAST WISCONSIN

CITY           SKY/WX    TMP DP  RH WIND       PRES   REMARKS
MILWAUKEE      MOCLDY    37  35  92 NE8       29.45R WCI  31
WAUKESHA       LGT RAIN  34  32  93 N9        29.44F WCI  26
MILWAUKEE/TIMM CLOUDY    34  32  93 N10G16    29.44F WCI  26
RACINE         LGT RAIN  36  35  96 N9        29.48R WCI  29
BURLINGTON     MIX PCPN  36  35  94 W8        29.48R WCI  30
KENOSHA        LGT RAIN  40  37  89 W14G25    29.46R WCI  32
FOND DU LAC    CLOUDY    31  29  92 N20G28    29.49R FOG     WCI  19
SHEBOYGAN      CLOUDY    33  33 100 N14G23    29.46F WCI  23
WEST BEND      HVY RAIN  32  32 100 NE7       29.48R WCI  26
JUNEAU         MIX PCPN  31  31  99 N12       29.48R WCI  22
$$

LSZ147-162-230500-
LAKE SUPERIOR

STATION/POSITION TIME  TEMP    WIND        PRES    WAVE
                       AIR SEA DIR/SP/G            HT/PER
                 (UTC) (F)     (DEG/KT/KT) (MB)    (FT/S)
DEVILS ISLAND    0300   23      30/ 25/ 28 1012.5F
SAXON HARBOR     0330   26      30/ 28/ 32 1009.1S
$$

LMZ867-665-643>646-230500-
LAKE MICHIGAN

STATION/POSITION TIME  TEMP    WIND        PRES    WAVE
                       AIR SEA DIR/SP/G            HT/PER
                 (UTC) (F)     (DEG/KT/KT) (MB)    (FT/S)
NORTHPORT PIER   0340   29      20/  7/ 13 1001.4F
KEWAUNEE LAKESHO 0330   32     360/  9/ 20  998.9R
SHEBOYGAN LAKESH 0300   34     350/ 21/ 24  999.0R
PORT WASHINGTON  0340   35     320/  8/ 17  998.3F
MILWAUKEE LAKESH 0330   35     360/ 15/ 18   N/A
KENOSHA   LAKESH 0300   42     220/ 13/ 18  998.0
$$

TC  - TEMPERATURE IN CELSIUS
VSB - VISIBILITY IN STATUTE MILES
WCI - WIND CHILL INDEX
HX  - HEAT INDEX





USA.gov is the U.S. government's official web portal to all federal, state and local government web resources and services.